Wetbulb
49.86 49.52 48.87 47.33 46.73 45.48 43.56 41.70 40.61 39.04 37.71 35.26 34.05 33.26 32.91 32.91 32.90 31.89 30.90 30.45 29.87 29.54 29.86 29.33 29.37 29.83 29.04 29.49 29.67 29.84 30.16 30.23 27.59 28.89 30.89 31.40 31.07 31.30 32.15 33.11 33.50 32.56 33.14
45.32 45.32 44.43 43.66 42.74 40.91 39.74 38.67 37.90 36.42 34.11 33.28 32.69 31.84 31.08 31.06 30.97 30.39 29.99 29.28 28.62 28.87 29.10 28.90 28.32 30.11 27.58 27.63 29.48 29.61 28.70 29.09 28.99 26.66 28.53 29.71 30.90 32.22 32.48 31.93 31.67 32.43 31.52
42.55 41.61 40.41 39.90 40.34 38.67 37.11 35.70 34.36 33.03 31.63 31.22 30.73 30.08 29.80 29.80 29.59 29.99 29.63 29.57 29.31 29.33 29.14 28.49 28.04 27.86 26.62 27.07 26.84 27.01 28.05 30.13 30.31 28.79 28.30 30.58 30.86 31.50 30.24 30.07 29.86 29.66 30.91
40.38 40.20 38.87 37.82 37.55 36.52 34.71 32.66 31.82 31.08 30.14 29.55 29.21 28.71 29.05 28.81 29.71 29.64 29.60 29.23 28.86 29.01 29.81 29.43 28.65 27.93 26.78 26.34 27.03 26.44 29.43 29.57 29.64 29.58 28.49 28.71 29.41 30.42 30.32 27.81 26.27 27.86 28.68
38.42 37.72 36.26 34.59 34.57 33.35 31.51 30.77 29.69 29.43 28.74 28.51 27.88 27.58 27.61 28.52 30.22 29.58 29.63 28.52 28.43 28.17 28.40 28.89 28.92 28.22 30.57 30.51 29.46 29.74 29.97 29.85 29.80 27.93 28.16 28.13 28.02 28.55 27.16 27.37 25.91 26.93 24.62
36.05 34.71 33.33 33.00 31.09 30.51 29.77 29.30 28.84 28.26 27.58 27.49 27.36 26.63 26.42 28.73 33.73 33.93 30.80 28.53 28.51 28.28 27.92 27.98 28.18 26.84 28.96 31.30 31.30 32.50 32.05 29.10 28.36 28.81 28.38 27.79 28.06 28.58 27.13 26.09 24.40 24.78 21.23
32.49 31.76 30.92 30.38 29.73 29.21 28.69 28.16 27.54 26.77 26.75 26.31 26.10 26.00 25.59 26.98 32.81 33.26 32.80 29.11 28.51 28.13 28.10 28.54 28.78 28.94 27.50 27.89 30.76 32.42 32.01 32.74 33.01 31.13 28.93 28.68 28.67 27.69 26.61 25.20 20.35 20.58 19.96
30.41 30.00 28.89 29.15 28.45 27.47 26.85 26.41 26.07 25.90 25.47 25.03 25.15 25.15 24.72 27.57 32.07 32.31 31.98 28.63 28.10 28.01 27.81 27.57 27.39 27.40 27.54 28.03 29.45 28.26 28.23 30.27 31.12 31.20 30.54 29.17 29.02 28.78 27.63 26.38 24.23 22.55 19.54
30.13 29.55 28.77 28.87 27.85 26.42 25.84 25.10 25.22 25.28 23.81 23.24 24.55 21.58 22.01 23.25 30.44 31.27 29.49 27.20 27.65 26.75 27.68 27.60 26.84 26.50 28.81 30.78 26.61 21.15 25.00 29.89 31.57 33.48 32.85 31.49 29.93 27.95 27.74 16.34 12.42 11.70 10.41
30.44 29.75 28.93 28.28 27.69 26.28 25.45 25.07 24.41 23.95 23.98 23.59 23.12 20.39 20.40 20.73 28.78 29.67 28.95 26.95 22.94 24.76 25.32 26.22 27.16 27.25 29.50 30.76 25.87 20.90 23.08 28.45 27.99 29.42 27.36 26.70 21.69 20.62 23.94 17.55 20.21 19.58 14.66
29.88 27.94 26.65 25.96 25.76 25.59 24.55 23.19 22.80 21.97 20.21 18.39 19.78 20.04 20.79 21.35 23.27 27.93 28.66 26.72 24.60 22.37 21.73 22.80 24.77 27.64 29.79 31.06 31.15 22.54 24.65 30.51 30.91 28.50 26.17 24.68 14.95 15.38 17.77 16.38 16.40 17.07 13.63
27.81 26.51 25.38 24.62 24.77 24.11 22.30 20.21 20.08 19.47 19.03 18.55 19.46 19.59 20.75 21.15 23.92 25.47 26.48 26.98 27.48 19.91 21.00 23.10 22.18 28.12 30.00 30.38 29.26 30.57 31.48 31.54 28.99 27.75 25.01 24.18 14.91 17.28 19.51 17.67 18.39 18.41 18.63
26.94 25.02 23.04 22.84 22.78 21.90 20.00 18.57 18.52 19.79 20.30 19.40 20.50 19.59 19.93 20.86 20.54 23.00 24.69 25.97 26.39 23.71 23.97 24.99 28.28 28.39 28.73 27.28 28.64 30.00 27.30 28.97 29.15 27.27 25.71 24.49 21.57 22.45 21.83 18.82 17.30 17.61 17.23
25.21 22.56 21.90 21.01 19.03 19.34 20.87 20.82 20.29 19.89 19.96 20.07 20.09 19.98 18.62 18.40 18.24 19.44 21.22 21.90 23.38 24.24 25.01 21.58 23.98 26.28 27.55 27.14 22.85 24.81 23.74 21.46 25.10 26.13 24.85 22.02 22.50 21.56 20.82 19.49 13.83 14.81 8.88
23.26 21.24 20.77 19.99 19.72 19.41 20.28 20.52 20.42 20.24 21.52 20.15 19.81 18.95 17.01 16.23 17.95 23.58 23.33 21.44 20.32 21.89 17.53 12.86 14.11 17.47 19.10 19.25 18.93 21.35 19.02 17.89 18.68 18.76 22.92 20.24 20.47 21.17 20.85 19.81 16.17 12.04 6.02
21.44 20.87 19.97 19.22 18.97 18.97 17.98 16.91 22.34 22.58 23.75 24.13 23.83 20.34 19.22 21.22 23.38 23.90 24.75 25.93 26.13 24.65 11.11 9.90 10.36 13.52 13.54 14.29 15.75 19.56 21.69 21.63 16.63 21.72 21.06 20.51 19.08 20.81 20.91 17.98 16.00 10.91 8.22
22.57 19.96 19.31 19.18 18.53 17.48 17.21 16.92 14.70 16.23 19.36 21.21 20.51 20.16 21.10 20.90 21.63 22.87 24.19 24.03 21.07 17.90 6.46 3.99 4.31 6.28 9.09 12.04 12.42 16.51 17.61 20.34 22.96 21.43 22.18 21.03 20.58 21.53 19.05 16.72 14.92 11.83 9.72
21.55 20.75 20.08 19.27 18.45 17.49 17.09 17.48 18.01 15.74 12.95 11.77 15.16 16.43 18.07 18.53 20.44 21.74 20.74 14.91 7.22 6.31 -0.26 -0.50 -1.56 0.75 5.72 7.06 9.71 11.21 14.59 16.94 18.67 19.55 20.12 20.55 20.88 20.59 15.52 14.22 14.48 9.77 9.12
19.98 19.56 19.09 18.11 17.53 16.80 15.16 13.52 12.93 12.16 11.71 10.70 8.24 11.33 12.01 15.81 18.08 16.37 15.54 3.09 0.20 -2.17 -2.70 -3.62 -5.74 -3.01 2.28 4.32 5.17 7.55 9.67 11.90 14.02 15.44 17.60 17.99 19.27 18.66 16.09 17.34 15.54 12.95 9.88
19.20 18.02 16.98 15.81 13.64 12.57 12.18 10.71 9.76 9.55 8.95 8.33 7.41 7.89 6.95 5.41 3.32 1.41 0.08 -3.81 -6.71 -6.87 -7.11 -7.50 -4.60 -3.57 -0.04 1.57 2.61 5.73 6.04 7.83 10.11 12.36 14.25 16.58 18.24 16.22 16.48 15.95 14.17 10.25 7.52
15.92 14.27 14.67 13.06 11.68 11.23 10.01 9.56 9.14 8.33 7.69 6.89 7.01 7.41 10.98 4.22 2.95 1.10 -1.54 -4.30 -5.36 -6.09 -5.91 -5.42 -3.68 -3.02 -1.75 -1.69 1.38 1.31 1.10 4.08 7.21 11.20 12.97 13.84 14.38 12.35 15.17 15.67 12.92 8.80 7.30
11.08 10.87 10.57 9.94 8.71 7.85 7.45 7.84 7.48 7.06 6.56 5.92 4.68 4.30 13.95 3.68 0.71 -1.83 -4.22 -5.59 -5.23 -6.84 -4.19 -4.44 -3.28 -3.47 -2.35 -3.20 -1.47 0.28 -0.70 -0.10 2.72 6.97 8.23 10.94 11.13 11.90 12.56 11.40 10.47 7.48 5.40
8.44 7.38 7.36 6.12 6.00 5.96 5.39 5.80 5.55 5.35 4.61 3.69 3.44 2.91 1.02 -2.04 -4.95 -6.65 -6.75 -6.50 -5.37 -5.36 -5.83 -8.61 -7.59 -6.82 -7.24 -7.55 -5.43 -0.27 -0.45 -0.56 1.49 4.17 5.27 8.06 9.70 10.56 10.05 9.68 7.52 4.25 4.54
7.78 7.36 6.09 3.87 3.92 3.96 4.64 4.26 3.98 3.72 2.88 1.73 -0.96 -2.98 -2.07 -4.44 -5.60 -4.16 -3.94 -4.40 -6.37 -7.93 -8.89 -9.95 -10.74 -9.28 -7.03 -7.46 -10.42 -9.12 -4.81 -0.97 2.68 3.56 4.06 6.11 8.07 9.10 8.86 7.69 6.18 3.01 3.69
7.05 6.58 6.09 5.42 4.93 4.59 4.14 3.74 2.49 1.55 -0.43 -1.13 -2.48 -3.67 -4.70 -3.42 -4.20 -4.96 -5.26 -8.92 -8.78 -9.34 -9.08 -9.36 -8.60 -9.02 -7.85 -6.75 -6.26 -6.57 -5.92 0.46 -0.27 1.70 2.76 4.42 5.45 5.92 5.74 5.31 5.46 5.33 4.43
1.62 4.12 5.51 4.91 4.18 3.56 2.58 2.38 1.52 0.10 -0.58 -1.33 -2.98 -3.70 -4.22 -3.58 -3.32 -5.54 -7.80 -10.71 -10.68 -9.78 -9.33 -9.06 -8.61 -8.04 -6.92 -5.73 -5.43 -1.66 1.12 6.87 6.83 7.00 4.83 2.77 4.31 5.86 6.03 4.99 4.48 3.31 3.35
MSLP
1018.40 1018.86 1019.38 1020.08 1020.63 1021.51 1022.48 1023.35 1024.25 1025.05 1025.63 1026.30 1026.95 1027.56 1027.89 1028.32 1028.62 1029.03 1029.49 1029.82 1030.02 1030.26 1030.54 1030.71 1030.89 1030.96 1030.83 1030.97 1030.97 1030.79 1030.66 1030.54 1029.78 1028.30 1028.04 1027.31 1026.46 1025.64 1025.31 1024.91 1024.11 1023.22 1022.26
1018.59 1019.21 1019.74 1020.38 1020.91 1021.71 1022.56 1023.49 1024.23 1025.20 1026.00 1026.50 1027.08 1027.71 1028.10 1028.48 1028.91 1029.15 1029.54 1029.87 1030.06 1030.46 1030.77 1030.86 1030.98 1030.84 1030.91 1031.07 1031.00 1030.90 1030.70 1030.36 1029.90 1028.73 1028.12 1027.23 1026.64 1025.82 1025.09 1024.34 1023.81 1023.12 1022.39
1018.98 1019.60 1020.25 1020.65 1021.50 1021.85 1023.05 1023.54 1024.32 1025.46 1026.24 1026.86 1027.27 1027.71 1028.11 1028.59 1028.93 1029.29 1029.64 1029.94 1030.20 1030.39 1030.55 1030.71 1030.89 1030.79 1030.94 1030.90 1030.76 1030.56 1030.37 1030.26 1029.81 1029.17 1027.91 1027.56 1026.88 1025.82 1025.09 1024.61 1023.90 1023.26 1022.71
1019.23 1019.72 1020.16 1021.13 1021.84 1022.36 1023.26 1023.76 1024.67 1025.59 1026.34 1027.07 1027.57 1027.88 1028.30 1028.79 1028.84 1029.18 1029.63 1029.91 1029.87 1030.04 1030.22 1030.68 1030.94 1031.03 1031.09 1030.95 1030.77 1030.64 1030.34 1030.01 1029.63 1029.32 1028.40 1027.30 1026.80 1026.01 1025.40 1024.81 1023.71 1023.69 1023.25
1019.64 1019.88 1020.57 1021.37 1022.09 1022.86 1023.48 1024.35 1025.39 1025.93 1026.75 1027.11 1027.76 1028.18 1028.44 1028.88 1028.96 1029.08 1029.55 1029.69 1029.71 1030.09 1030.34 1030.47 1030.61 1030.83 1030.87 1030.85 1030.56 1030.46 1030.21 1029.68 1029.03 1028.80 1028.17 1027.35 1026.52 1025.90 1025.74 1025.61 1025.43 1024.64 1024.01
1019.80 1020.34 1021.02 1021.75 1022.41 1023.31 1024.06 1024.69 1025.78 1026.26 1026.94 1027.27 1027.78 1028.18 1028.50 1028.75 1028.58 1028.69 1029.18 1029.31 1029.46 1029.82 1030.21 1030.50 1030.67 1030.72 1030.55 1030.19 1029.93 1029.55 1029.46 1029.14 1028.61 1028.56 1028.09 1027.42 1026.72 1026.41 1026.15 1026.01 1025.76 1025.08 1024.92
1019.94 1020.69 1021.30 1021.93 1022.66 1023.41 1024.23 1024.96 1025.85 1026.35 1027.04 1027.61 1028.06 1028.46 1028.71 1028.78 1028.54 1028.81 1028.94 1029.28 1029.59 1029.86 1029.95 1030.00 1030.02 1029.97 1030.00 1030.08 1029.71 1029.37 1029.14 1028.92 1028.25 1028.34 1028.00 1027.70 1026.95 1026.57 1026.29 1026.01 1026.00 1025.72 1025.44
1020.12 1020.78 1021.52 1021.93 1022.87 1023.77 1024.50 1025.16 1025.93 1026.33 1027.03 1027.76 1028.30 1028.85 1029.04 1028.95 1028.58 1028.66 1028.65 1029.08 1029.37 1029.46 1029.52 1029.66 1029.85 1029.81 1029.83 1029.62 1029.26 1028.77 1028.58 1028.32 1027.80 1027.74 1027.68 1027.55 1027.17 1026.64 1026.32 1026.24 1026.15 1025.66 1025.25
1019.80 1020.55 1021.25 1021.80 1022.76 1023.71 1024.56 1025.34 1026.23 1026.83 1027.46 1027.89 1028.47 1028.84 1028.96 1029.02 1028.57 1028.36 1028.69 1029.11 1029.30 1029.37 1029.46 1029.77 1029.81 1029.71 1029.20 1028.75 1028.82 1028.60 1028.22 1027.60 1027.13 1026.85 1027.00 1026.82 1026.75 1026.64 1026.13 1026.62 1026.59 1026.14 1025.99
1019.15 1020.07 1020.95 1021.77 1022.58 1023.67 1024.50 1025.27 1026.01 1026.79 1027.41 1028.03 1028.61 1028.92 1029.13 1029.20 1028.49 1028.38 1028.58 1028.89 1029.14 1029.30 1029.51 1029.47 1029.29 1029.09 1028.69 1028.29 1028.17 1027.96 1028.00 1027.46 1026.87 1026.76 1026.81 1026.55 1026.96 1026.92 1026.52 1026.85 1026.77 1026.50 1026.30
1018.60 1019.98 1021.08 1022.02 1022.75 1023.46 1024.40 1025.19 1025.97 1026.83 1027.61 1028.19 1028.65 1029.11 1029.20 1029.39 1029.21 1028.63 1028.48 1028.86 1029.09 1029.39 1029.35 1029.08 1029.00 1028.75 1028.14 1027.72 1027.21 1027.16 1026.94 1026.46 1026.28 1026.56 1026.49 1026.56 1027.08 1026.88 1026.62 1026.64 1026.53 1026.28 1026.01
1018.55 1019.94 1021.20 1022.15 1023.02 1023.70 1024.49 1025.47 1026.20 1026.85 1027.53 1028.18 1028.68 1029.10 1029.20 1029.40 1029.21 1028.86 1028.81 1028.69 1028.69 1029.27 1029.31 1029.06 1028.82 1028.09 1027.53 1026.92 1026.65 1026.44 1025.96 1025.70 1025.91 1026.10 1025.98 1025.87 1026.17 1026.05 1026.16 1026.33 1026.29 1026.09 1026.00
1018.63 1020.00 1021.32 1022.39 1023.09 1023.82 1024.62 1025.55 1026.17 1026.72 1027.29 1027.94 1028.38 1028.86 1029.19 1029.38 1029.38 1029.14 1028.81 1028.72 1028.93 1028.94 1028.77 1028.24 1027.57 1027.24 1027.01 1027.05 1026.58 1025.94 1025.79 1025.81 1025.54 1025.44 1025.31 1025.06 1025.19 1025.16 1025.49 1025.88 1025.97 1025.83 1025.87
1018.67 1020.18 1021.36 1022.23 1023.34 1024.17 1024.90 1025.34 1025.73 1026.40 1026.99 1027.56 1028.15 1028.58 1028.83 1029.11 1029.15 1029.08 1028.78 1028.97 1028.93 1028.70 1028.43 1028.39 1027.53 1027.09 1026.70 1026.57 1026.36 1025.99 1025.90 1025.84 1025.59 1024.99 1024.67 1024.48 1024.69 1025.02 1025.29 1025.51 1025.74 1025.87 1025.98
1018.96 1020.16 1021.22 1022.27 1023.27 1024.30 1024.93 1025.39 1025.73 1026.19 1026.50 1026.99 1027.59 1027.68 1028.51 1028.74 1028.84 1028.27 1028.02 1028.31 1028.27 1028.12 1027.95 1028.02 1027.50 1027.34 1026.95 1026.69 1026.44 1026.08 1025.72 1025.54 1025.26 1024.58 1024.21 1024.08 1024.15 1024.40 1024.59 1024.87 1025.07 1025.51 1025.96
1018.91 1020.01 1021.06 1022.15 1023.28 1024.11 1024.80 1025.64 1025.94 1026.20 1026.49 1026.82 1026.70 1027.70 1028.41 1028.37 1028.12 1027.98 1027.84 1027.59 1027.57 1027.65 1027.97 1028.50 1027.99 1027.83 1027.70 1027.34 1027.08 1026.57 1025.97 1025.20 1024.67 1024.19 1023.79 1023.69 1023.78 1024.01 1024.19 1024.49 1024.73 1024.99 1025.54
1018.26 1019.76 1020.93 1021.95 1022.92 1023.78 1024.47 1025.16 1026.23 1027.03 1027.01 1026.82 1027.43 1027.80 1028.05 1027.97 1027.84 1027.65 1027.46 1027.52 1027.80 1027.74 1028.56 1028.86 1028.77 1028.63 1028.38 1027.94 1027.62 1027.15 1026.25 1025.37 1024.58 1024.15 1023.58 1023.24 1023.18 1023.11 1023.46 1023.89 1024.35 1024.67 1025.12
1018.59 1019.49 1020.27 1021.32 1022.28 1023.24 1023.87 1024.56 1025.30 1026.04 1026.81 1027.50 1028.22 1028.08 1027.87 1027.95 1027.71 1027.28 1027.50 1028.07 1028.60 1028.61 1029.11 1029.30 1029.23 1029.14 1028.80 1028.51 1028.03 1027.41 1026.24 1025.24 1024.70 1024.00 1023.30 1022.89 1022.66 1022.58 1022.88 1023.26 1023.70 1023.98 1024.63
1018.82 1019.84 1020.66 1021.59 1022.34 1023.08 1023.86 1024.49 1025.20 1025.99 1026.53 1027.36 1028.13 1028.26 1028.33 1028.03 1027.74 1027.90 1028.45 1029.34 1029.39 1029.58 1029.53 1029.24 1029.10 1029.09 1028.90 1028.72 1028.28 1027.35 1026.54 1025.78 1025.20 1024.38 1023.50 1022.88 1022.40 1022.18 1022.46 1022.68 1023.06 1023.39 1023.97
1019.16 1019.75 1020.53 1021.58 1022.54 1023.49 1024.05 1024.78 1025.52 1026.03 1026.88 1027.30 1027.91 1028.09 1028.35 1028.72 1028.42 1029.11 1029.44 1029.61 1029.57 1029.56 1029.49 1029.43 1029.26 1029.03 1028.86 1028.56 1027.98 1027.07 1026.50 1025.83 1025.08 1024.21 1023.68 1023.14 1022.47 1021.97 1021.77 1021.96 1022.36 1022.99 1023.47
1019.80 1020.56 1021.15 1022.18 1022.80 1023.37 1024.17 1024.91 1025.42 1026.05 1026.72 1027.12 1027.79 1028.13 1028.13 1028.47 1029.08 1029.50 1029.49 1029.44 1029.30 1029.34 1029.48 1029.43 1029.12 1028.92 1028.58 1028.12 1027.51 1026.96 1026.33 1025.44 1024.80 1024.29 1023.38 1022.79 1022.27 1022.24 1021.81 1021.65 1021.84 1022.51 1022.98
1021.20 1021.62 1022.23 1022.59 1023.15 1023.78 1024.38 1024.80 1025.36 1025.91 1026.50 1027.03 1027.37 1027.88 1027.98 1028.74 1029.20 1029.26 1029.10 1029.09 1029.33 1029.35 1029.19 1029.08 1028.77 1028.49 1028.04 1027.72 1027.29 1026.80 1026.25 1025.92 1024.98 1024.16 1023.63 1022.97 1022.18 1021.94 1021.84 1021.71 1021.88 1022.28 1022.81
1021.83 1022.46 1023.03 1023.63 1023.91 1024.27 1024.76 1025.17 1025.64 1025.95 1026.28 1026.38 1027.11 1027.88 1028.23 1028.38 1028.72 1028.74 1028.58 1028.73 1028.91 1028.88 1028.66 1028.58 1028.52 1027.98 1027.73 1027.42 1027.05 1026.61 1026.06 1025.76 1025.28 1024.34 1023.49 1023.03 1022.49 1022.13 1022.02 1021.87 1022.00 1022.29 1022.73
1021.93 1022.47 1022.89 1023.54 1024.06 1024.47 1024.87 1025.38 1025.81 1026.04 1026.12 1026.59 1027.15 1027.57 1027.85 1028.01 1028.09 1028.28 1028.29 1028.27 1028.35 1028.34 1028.17 1027.96 1027.65 1027.52 1027.05 1026.55 1026.25 1026.06 1025.78 1025.42 1024.72 1024.04 1023.58 1023.15 1022.69 1022.25 1022.07 1022.06 1022.09 1022.29 1022.48
1022.22 1022.63 1023.17 1023.76 1024.22 1024.46 1024.61 1024.97 1025.61 1026.03 1026.46 1026.72 1027.02 1027.18 1027.26 1027.49 1027.65 1027.81 1027.94 1028.04 1028.07 1027.83 1027.33 1027.16 1027.04 1026.80 1026.41 1025.98 1025.53 1025.17 1024.96 1024.68 1024.16 1023.56 1023.28 1023.00 1022.69 1022.36 1022.21 1022.11 1022.03 1022.24 1022.40
1023.03 1023.38 1023.59 1023.82 1023.97 1024.29 1024.67 1025.06 1025.60 1025.95 1026.18 1026.43 1026.59 1026.74 1026.91 1027.06 1027.13 1027.32 1027.39 1027.48 1027.26 1026.99 1026.62 1026.24 1026.07 1025.88 1025.64 1025.29 1024.90 1024.48 1024.12 1023.58 1023.16 1022.81 1022.65 1022.60 1022.51 1022.29 1022.08 1021.92 1021.90 1022.07 1022.27
Wind_Speed
7 6 9 9 11 10 10 10 10 9 9 8 8 7 7 6 6 6 6 5 6 5 4 5 5 4 3 4 3 3 3 3 8 8 10 12 14 15 14 13 13 13 13
7 8 9 10 11 11 11 10 10 10 7 8 7 7 7 6 6 6 6 5 5 5 4 5 5 4 5 4 3 3 3 4 8 17 12 11 15 16 14 15 11 10 11
8 9 9 9 9 13 11 11 11 9 8 7 7 7 7 6 6 6 5 5 4 5 5 5 4 4 3 2 2 3 3 5 8 9 12 11 10 11 13 9 10 12 10
8 10 11 9 9 10 11 11 10 8 8 7 6 7 6 6 5 5 5 4 5 4 4 5 4 2 2 4 4 5 6 7 9 7 10 10 10 10 8 11 14 11 9
9 9 9 8 9 10 11 10 8 8 6 7 7 6 6 5 3 5 4 4 5 5 4 2 1 3 6 6 3 5 8 6 6 8 7 9 9 10 9 10 8 9 4
8 9 9 10 9 9 9 9 8 8 7 7 6 6 6 3 6 6 5 4 4 3 3 3 3 4 4 6 7 11 11 7 9 7 8 9 10 9 9 7 8 6 4
9 9 10 10 10 9 9 9 8 8 7 6 6 6 5 4 6 6 6 4 4 3 3 2 2 3 4 4 9 11 11 12 13 9 9 8 9 8 6 7 4 2 2
9 10 9 10 10 8 8 8 7 6 6 5 5 4 5 3 6 5 7 4 3 3 2 3 4 5 6 5 8 6 6 6 7 5 4 6 6 7 5 5 6 5 2
11 11 10 11 12 10 9 8 5 6 4 3 4 5 5 2 6 6 6 3 3 2 2 4 4 4 8 12 5 5 6 7 8 12 7 9 10 9 7 3 4 3 3
13 12 11 10 10 10 9 8 4 4 5 4 5 4 4 3 4 5 4 2 2 1 1 4 7 7 12 13 6 5 6 9 4 3 4 3 4 4 7 2 3 1 2
11 10 10 9 10 9 9 4 6 7 6 5 5 3 4 3 1 3 5 2 1 1 2 3 4 12 13 16 14 3 6 9 5 3 3 2 2 1 1 1 1 1 1
12 12 11 10 7 8 10 6 7 7 7 5 5 3 2 2 2 3 4 3 4 1 3 4 5 13 16 15 12 14 16 12 3 3 3 3 2 2 2 1 0 1 1
14 12 11 9 8 8 9 9 6 5 5 5 4 3 2 1 1 3 4 4 6 4 4 8 13 14 14 10 13 15 10 6 5 5 6 2 3 3 2 2 1 2 1
14 12 11 11 9 6 5 5 6 5 4 4 4 3 2 0 2 3 2 2 7 6 9 5 7 9 9 9 5 7 4 4 6 6 5 2 1 2 2 2 2 1 1
12 11 10 9 9 8 5 4 4 3 3 4 3 3 3 2 3 5 3 2 4 5 1 1 2 2 3 5 6 6 4 4 5 4 4 3 3 3 3 3 2 1 2
13 10 9 9 7 6 7 5 6 6 6 5 8 5 3 6 6 6 7 8 7 9 3 2 2 3 5 6 6 8 8 7 4 5 4 4 4 4 4 3 2 3 3
14 12 10 10 8 8 7 7 7 3 4 5 4 4 6 4 5 6 6 7 6 4 2 2 2 3 4 5 6 8 9 8 9 6 6 5 5 5 4 4 3 2 3
11 14 11 9 8 7 6 6 5 6 5 4 3 3 4 4 6 4 4 4 2 3 0 1 2 2 5 6 6 7 7 7 8 7 6 5 5 4 3 3 4 4 3
10 8 7 7 6 7 6 5 5 4 4 3 2 2 1 3 3 3 5 1 2 1 2 2 2 2 4 5 6 6 7 7 8 8 7 6 5 4 4 5 5 7 5
6 11 9 7 7 6 5 5 4 4 4 3 3 3 1 1 1 1 2 2 2 2 2 2 3 3 5 5 6 5 6 7 7 6 7 7 6 4 5 5 5 4 4
5 6 8 5 6 6 5 5 5 4 4 4 3 2 7 3 3 4 3 2 2 2 2 3 3 4 4 5 5 4 4 6 6 7 7 6 5 4 4 3 4 4 3
5 4 4 4 5 5 4 4 5 5 5 5 3 2 7 2 3 3 3 2 2 3 3 3 4 4 4 4 4 5 4 6 6 6 7 7 4 3 3 2 2 2 3
4 5 4 3 3 5 4 3 4 4 4 4 3 4 3 3 3 3 3 3 2 3 3 3 4 5 4 4 4 5 5 6 6 6 7 7 5 3 2 2 2 2 3
5 5 6 4 4 4 4 4 4 5 4 4 4 4 4 3 3 4 3 3 3 4 3 4 3 5 5 5 3 4 4 5 6 5 6 5 5 4 3 2 3 2 3
4 5 5 5 5 4 4 4 4 4 4 4 4 3 3 3 3 4 4 3 4 4 4 4 4 6 7 8 7 8 7 10 7 6 3 4 5 4 3 2 2 2 2
3 1 2 3 3 3 4 4 4 4 5 4 4 4 4 4 4 4 4 4 4 4 5 4 5 8 9 7 8 9 9 10 10 10 5 3 3 3 3 4 5 3 3
Wind_Direction
148 134 137 138 133 127 128 129 136 130 136 125 122 123 120 113 112 103 97 89 83 80 61 62 54 43 31 20 12 1 348 323 295 309 327 330 328 329 336 337 328 325 323
135 135 134 134 134 131 129 137 131 131 116 126 125 118 116 114 108 106 98 89 96 85 69 54 44 31 38 24 14 342 321 312 311 313 320 324 330 332 326 328 330 328 326
134 135 132 133 154 131 138 136 119 127 124 120 126 129 128 123 115 99 111 105 95 77 60 52 36 41 34 336 331 314 317 311 310 302 313 325 325 326 329 324 336 338 339
143 145 142 145 143 138 135 124 128 128 127 126 124 123 123 123 115 117 111 115 84 72 63 53 41 34 303 308 311 313 319 310 316 309 314 320 326 331 323 339 344 347 352
150 146 140 127 129 128 124 122 120 120 128 125 121 110 114 115 127 120 118 97 75 54 46 46 331 290 295 306 318 326 317 303 308 315 309 315 323 333 351 342 340 329 355
152 139 135 135 129 129 125 123 124 124 128 123 121 129 125 117 118 106 115 92 76 63 16 356 338 315 303 306 315 313 325 316 311 311 313 311 320 331 337 339 332 342 346
143 143 140 140 137 136 132 133 136 131 124 127 128 129 129 131 108 104 95 96 78 45 12 348 315 271 287 276 291 312 304 305 310 305 310 315 319 332 327 323 318 302 277
145 150 148 142 138 137 138 136 131 132 133 129 120 123 121 101 107 104 91 84 70 49 17 331 310 309 302 294 271 271 268 278 275 256 249 290 293 316 313 314 294 285 313
165 163 160 154 151 151 145 136 125 122 116 122 132 126 125 115 111 96 99 97 83 36 349 321 308 293 297 314 296 273 274 271 267 295 302 326 327 330 337 9 349 31 314
175 170 162 154 148 147 141 138 122 122 127 122 116 110 115 111 94 95 101 113 64 22 318 280 293 306 312 309 293 255 282 304 280 249 282 349 339 341 17 51 324 304 255
153 146 145 145 147 144 132 117 129 122 113 111 114 107 104 96 35 70 54 75 30 325 304 285 265 298 303 313 313 262 265 290 303 261 260 273 282 309 11 351 326 154 299
146 145 147 145 143 136 128 119 126 131 127 130 132 127 107 67 33 35 28 6 325 162 282 276 269 293 317 312 311 299 302 303 235 252 245 242 241 231 215 181 311 60 39
147 149 143 135 133 137 138 139 130 137 142 153 154 139 145 138 19 320 332 315 317 278 259 274 308 313 314 313 306 310 308 294 281 266 270 243 195 188 169 206 233 202 116
149 146 142 138 129 124 127 139 136 149 146 148 157 169 143 229 276 265 257 278 292 284 281 294 305 308 302 318 320 306 288 270 271 271 265 236 164 166 198 197 193 205 106
145 143 140 136 142 135 114 127 129 94 134 152 161 127 172 217 241 260 279 241 245 256 291 332 331 313 319 335 328 313 289 283 269 247 246 228 200 190 199 184 186 156 167
148 150 150 144 142 139 135 118 102 125 146 140 122 154 201 235 262 286 285 285 321 326 42 358 335 351 340 327 321 313 306 301 270 284 257 233 218 213 205 181 186 173 189
155 151 146 147 150 150 152 151 152 117 87 110 159 211 227 230 263 274 288 320 341 27 63 349 353 329 315 316 306 301 304 309 316 297 278 246 223 211 183 188 189 165 193
149 154 154 153 153 152 157 162 152 165 162 162 189 218 221 260 266 278 324 48 2 7 60 291 299 304 316 303 297 293 299 310 308 306 290 268 230 208 175 186 195 175 179
139 144 141 142 144 145 142 145 154 154 152 148 170 215 219 274 285 4 76 137 194 267 298 318 264 268 290 286 280 289 298 298 297 302 299 276 249 210 221 210 193 185 167
128 136 137 140 138 142 151 149 151 145 161 173 191 199 181 100 68 281 240 204 189 236 276 272 282 275 273 273 281 291 298 302 305 303 298 290 273 229 227 201 180 170 191
122 123 135 134 148 149 147 160 150 151 169 179 207 194 206 157 200 222 234 253 255 258 255 251 262 256 263 269 280 282 277 293 301 304 299 286 264 253 234 206 174 176 156
73 98 118 129 130 138 146 144 155 168 179 183 174 207 226 177 214 230 245 259 254 234 241 252 272 262 269 272 281 287 293 298 301 311 312 302 281 263 243 194 174 153 150
119 127 124 114 123 133 146 154 176 185 185 174 173 204 201 205 223 238 240 244 247 263 247 227 249 275 263 261 258 270 285 285 286 298 305 305 293 269 242 227 185 146 166
137 152 152 149 150 154 162 180 197 202 197 195 194 201 217 223 222 240 247 247 254 258 263 264 243 258 277 273 262 263 266 274 275 292 296 295 294 286 255 224 210 179 161
144 148 157 169 180 186 173 179 199 209 209 205 214 216 212 226 235 246 255 251 260 265 267 264 265 266 277 287 288 287 275 286 279 266 274 282 281 280 264 255 199 210 182
88 128 183 171 177 176 188 190 206 207 218 224 217 211 214 233 246 248 242 244 247 251 260 255 262 279 289 282 278 279 274 286 279 257 234 232 267 259 237 233 221 206 216